Location: Wawayanda State Park
(41.1833°N, 74.4333°W)
Time: 16:43:21
(UTC-04:00)

Landsat 7 - Visible Passes

Search period start: 28 August 2016 00:00
Search period end: 07 September 2016 00:00
Orbit: 702 x 703 km, 98.2° (Epoch: 28 August)

Date Brightness Start Highest point End Pass type
(mag) Time Alt. Az. Time Alt. Az. Time Alt. Az.
28 Aug 5.0 22:00:07 30° NE 22:00:07 30° NE 22:03:24 10° N visible
28 Aug 6.1 23:39:00 19° WNW 23:39:00 19° WNW 23:40:54 10° NW visible
29 Aug 6.0 21:04:36 10° ENE 21:04:49 10° ENE 21:05:08 10° NE visible
29 Aug 4.9 22:43:29 40° N 22:43:29 40° N 22:46:33 10° NNW visible
30 Aug 5.3 21:47:59 24° NE 21:47:59 24° NE 21:50:55 10° NNE visible
30 Aug 6.0 23:26:52 23° NW 23:26:52 23° NW 23:28:59 10° NNW visible
31 Aug 5.0 22:31:21 37° N 22:31:21 37° N 22:34:18 10° N visible
01 Sep 5.6 21:35:51 19° NE 21:35:51 19° NE 21:38:21 10° NNE visible
01 Sep 5.8 23:14:44 25° NW 23:14:44 25° NW 23:16:57 10° NNW visible
02 Sep 5.1 22:19:14 32° NNE 22:19:14 32° NNE 22:22:00 10° N visible
02 Sep 6.7 23:58:07 12° NW 23:58:07 12° NW 23:58:34 10° NW visible
03 Sep 5.8 21:23:43 15° NE 21:23:43 15° NE 21:25:37 10° NNE visible
03 Sep 5.7 23:02:37 27° NNW 23:02:37 27° NNW 23:04:51 10° NNW visible
04 Sep 5.3 22:07:06 27° NNE 22:07:06 27° NNE 22:09:38 10° N visible
04 Sep 6.6 23:46:00 14° NW 23:46:00 14° NW 23:46:51 10° NW visible
05 Sep 6.0 21:11:36 11° NE 21:11:36 11° NE 21:12:29 10° NE visible
05 Sep 5.7 22:50:30 27° NNW 22:50:30 27° NNW 22:52:41 10° NNW visible
06 Sep 5.6 21:54:59 22° NNE 21:54:59 22° NNE 21:57:12 10° N visible
06 Sep 6.5 23:33:53 16° NW 23:33:53 16° NW 23:34:59 10° NW visible
